Other Public Products
Issued by NWS Grand Forks, ND

Home | Current Version | Previous Version | Graphics & Text | Print | Product List | Glossary On
Versions: 1 2 3 4 5 6 7 8 9 10 11 12 13 14 15 16 17 18 19 20 21 22 23 24 25 26 27 28 29 30 31 32 33 34 35 36 37 38 39 40 41 42 43 44 45 46 47 48 49 50
000
FPUS83 KFGF 302310
OPUFGF
PRAIRIE TO PINES WEATHER ROUNDUP
NATIONAL WEATHER SERVICE EASTERN NORTH DAKOTA/GRAND FORKS ND
600 PM CDT SAT APR 30 2016

 **SATELLITE DATA USED TO AUGMENT SKY COVER AT AUTOMATED STATIONS**
 *****  WEATHER ACROSS EASTERN NORTH DAKOTA  *****

CITY           SKY/WX    TMP DP  RH WIND       PRES   REMARKS
GRAND FORKS    MOSUNNY   60  26  27 NE23G30   30.21R
GRAND FORKS AF SUNNY     60  26  27 E18       30.22R
GRAND CITY NWS NOT AVBL
BUXTON         NOT AVBL
DEVILS LAKE    MOSUNNY   60  30  32 NE18G28   30.23R
FARGO          CLOUDY    62  25  24 NE18G25   30.13R
WAHPETON ARPT  CLOUDY    61  25  25 NE14      30.11R
$$

 *****  WEATHER ACROSS CENTRAL AND WESTERN NORTH DAKOTA  *****

CITY           SKY/WX    TMP DP  RH WIND       PRES   REMARKS
JAMESTOWN      MOSUNNY   60  26  27 NE20G30   30.16R
BISMARCK       CLOUDY    60  29  30 NE20G28   30.19R
MINOT          SUNNY     66  25  21 NE16      30.23S
MINOT AFB      SUNNY     62  27  26 E12       30.22S
GARRISON         N/A     60  25  26 E14G25    30.22S
WILLISTON      MOSUNNY   62  28  27 E10       30.25R
DICKINSON      PTSUNNY   56  27  32 NE14G30   30.19R
HETTINGER      CLOUDY    57  28  33 NE21G28   30.19R
$$

 *****  OTHER OBSERVATIONS NORTHEAST NORTH DAKOTA  *****

CITY           SKY/WX    TMP DP  RH WIND       PRES   REMARKS
WALHALLA       FAIR      61  28  29 NE17      30.24S
LANGDON        FAIR      61  30  31 NE15G23   30.24R
CAVALIER       FAIR      61  32  33 NE15G22   30.24R
GRAFTON        FAIR      61  30  31 NE20      30.24R
CANDO          FAIR      61  27  27 NE17      30.26R
FORT TOTTEN      N/A     60  30  32 NE7       29.95S
ROLLA          FAIR      59  25  27 NE17G24   30.26S
RUGBY          FAIR      61  27  27 NE17G23   30.23S
 ***** THE ABOVE OBSERVATIONS ARE NON NWS ARE NOT QUALITY
        CONTROLLED AND MAY MIS-REPORT RAIN FOR SNOW...
$$

 *****  OTHER OBSERVATIONS SOUTHEAST NORTH DAKOTA *****

CITY           SKY/WX    TMP DP  RH WIND       PRES   REMARKS
COOPERSTOWN    NOT AVBL
VALLEY CITY    FAIR      59  25  27 NE16      30.17R
OAKES            N/A    N/A N/A N/A MISG        N/A
GWINNER        FAIR      63  28  27 NE20G26   30.12R
BUFFALO        NOT AVBL
WYNDMERE         N/A     63  30  29 NE16        N/A
 ***** THE ABOVE OBSERVATIONS ARE NON NWS ARE NOT QUALITY
       CONTROLLED AND MAY MIS-REPORT RAIN FOR SNOW...
$$

  *****  WEATHER ACROSS NORTHERN MINNESOTA  *****

CITY           SKY/WX    TMP DP  RH WIND       PRES   REMARKS
FLAG ISLAND    SUNNY     54  27  35 NE15      30.25R
WARROAD        SUNNY     55  30  38 NE10G16   30.25S
ROSEAU         SUNNY     57  32  38 NE21G26   30.24R
HALLOCK        SUNNY     63  19  19 NE17      30.22R
THF RVR FALLS  SUNNY     57  27  30 N20       30.22S
HALSTAD        NOT AVBL
FOSSTON        SUNNY     57  28  33 NE14G23   30.19R
BAUDETTE       SUNNY     57  25  29 NE13      30.22R
WASKISH        SUNNY     57  30  35 NE15G23   30.21R
CROOKSTON      SUNNY     59  28  31 NE15G23   30.21R
$$
  *****  WEATHER ACROSS CENTRAL AND WEST MINNESOTA  *****

CITY           SKY/WX    TMP DP  RH WIND       PRES   REMARKS
BEMIDJI        PTSUNNY   57  29  34 E12G21    30.17S
PARK RAPIDS    PTSUNNY   57  27  31 NE12      30.13S
WADENA         MOSUNNY   55  32  41 E10G20    30.11R
DETROIT LAKES  CLOUDY    59  28  31 E13G20    30.14S
MOORHEAD       CLOUDY    63  27  25 E16       30.14R
FERGUS FALLS   CLOUDY    59  30  33 E10G17    30.08R
ELBOW LAKE     FAIR      57  32  38 NE15G21   30.09S
MORRIS MN      CLOUDY    57  34  41 E18G26    30.07R
STAPLES        MOSUNNY   54  27  35 E10G17    30.13R
WHEATON        CLOUDY    61  34  36 NE17G23   30.10R
$$
  *****  WEATHER ELSEWHERE ACROSS MINNESOTA  *****

CITY           SKY/WX    TMP DP  RH WIND       PRES   REMARKS
DULUTH         MOSUNNY   46  26  45 E21G26    30.21S
INTRNTL FALLS  SUNNY     57  25  29 E14       30.22R
ELY            MOSUNNY   48  27  43 SE5       30.22R
CLOQUET        CLOUDY    46  23  39 E20G28    30.19F
BRAINERD       PTSUNNY   52  28  39 NE10G23   30.14F
HIBBING        CLOUDY    51  29  42 E13       30.20R
ALEXANDRIA     MOSUNNY   55  31  39 E20G29    30.10R
SAINT CLOUD    CLOUDY    55  33  43 NE22G32   30.08R
MINNEAPOLIS    CLOUDY    57  34  41 E14       30.03S
$$

  *****  WEATHER ACROSS SOUTH DAKOTA  *****

CITY           SKY/WX    TMP DP  RH WIND       PRES   REMARKS
SIOUX FALLS    LGT RAIN  44  40  85 E21G30    29.98R
BROOKINGS      CLOUDY    50  36  58 NE18      30.00R
WATERTOWN      CLOUDY    53  33  46 NE23G29   30.04R
HURON          CLOUDY    52  37  56 NE16      30.03R
SISSETON         N/A     59  32  36 E15       30.07R
ABERDEEN       CLOUDY    59  32  36 NE22G29   30.08S
MITCHELL       RAIN      46  42  86 NE21      30.02R FOG
PIERRE         CLOUDY    54  36  50 NE24G30   30.05R
MOBRIDGE       PTSUNNY   60  31  33 NE16G31   30.10R
RAPID CITY     CLOUDY    50  31  48 NE24G30   30.10R
$$

  *****  SOME WEATHER IN NEARBY STATES *****

CITY           SKY/WX    TMP DP  RH WIND       PRES   REMARKS
GLASGOW MT     SUNNY     63  28  26 E12       30.25S
GREAT FALLS MT CLOUDY    52  36  54 E9        30.25R
CHEYENNE WY    LGT SNOW  33  30  88 N16G29    30.05S VSB 3/4 WCI  23
SCOTTSBLUFF NE LGT RAIN  38  32  79 N14G22    30.06R
OMAHA NE       CLOUDY    50  48  93 E12       29.79R FOG
DES MOINES IA  DRIZZLE   50  47  89 E16       29.82R FOG
DAVENPORT IA   LGT RAIN  46  44  93 E16       29.87S FOG
CHICAGO IL     HVY RAIN  45  43  93 NE20G30   29.92R FOG
EAU CLAIRE WI  CLOUDY    57  34  41 E9        30.04R
LA CROSSE WI   RAIN      48  38  68 NE15G23   30.04R
$$

  *****  SOME NATIONAL WEATHER *****

CITY           SKY/WX    TMP DP  RH WIND       PRES   REMARKS
LA GUARDIA NY  MOCLDY    55  38  52 S13       30.22R
RALEIGH NC     CLOUDY    62  57  83 E9        30.13S
ATLANTA GA     TSTM      73  64  73 S10       29.93S
NEW ORLEANS LA LGT RAIN  71  66  84 SE22G33   29.78F
OKLAHOMA CITY  MOSUNNY   70  45  40 NW15      29.78S
ALBUQUERQUE NM PTSUNNY   63  30  28 VRB6      29.80F
SALT LAKE CITY PTSUNNY   62  28  27 N15       29.90S
LOS ANGELES CA MOSUNNY   64  50  60 W14       29.80F
BOISE ID       SUNNY     69  35  28 NW22G35   29.99S
SEATTLE WA     MOSUNNY   66  40  38 VRB7      30.33F
$$

*** WEATHER ACROSS MANITOBA...SASKATCHEWAN AND ONTARIO ***
                ***ONTARIO***

CITY           SKY/WX    TMP DP  RH WIND       PRES   REMARKS
GERALDTON      MOSUNNY   48  27  43 E13       30.31S
THUNDER BAY    MOSUNNY   52  28  40 E12       30.25S
SIOUX LOOKOUT  SUNNY     54  27  35 E8        30.28S
TORONTO        PTSUNNY   54  25  32 E10       30.12F
BIG TROUT LK   SUNNY     46  27  46 SW5       30.35F
PICKLE LAKE    MOSUNNY   48  27  43 NE5       30.32S
DRYDEN         SUNNY     55  25  30 NE17G23   30.25F
KENORA         SUNNY     57  25  28 NE10G20   30.26S
$$
                *** MANITOBA***

CITY           SKY/WX    TMP DP  RH WIND       PRES   REMARKS
BRANDON        MOSUNNY   61  28  29 E20G26    30.30R
DAUPHIN        SUNNY     63  27  25 E8G18     30.33S
ISLAND LAKE    PTSUNNY   63  27  25 CALM      30.30S
PILOT MOUND      N/A     59  25  27 NE16G22     N/A
THE PAS        CLOUDY    64  28  25 SE10      30.30F
THOMPSON       MOSUNNY   70  25  18 W3        30.25F
WINNIPEG       SUNNY     61  28  29 N20G25    30.28S
LYNN LAKE      SUNNY     68  25  19 SW10G18   30.22F
CHURCHILL      PTSUNNY   36  28  75 SE16      30.38F
$$
                ***SASKATCHEWAN***

CITY           SKY/WX    TMP DP  RH WIND       PRES   REMARKS
ESTEVAN        SUNNY     63  25  23 E13G22    30.28R
KINDERSLEY     PTSUNNY   64  30  27 SW3       30.27R
LLOYDMINSTER   CLOUDY    61  36  39 SW13      30.25S
PRINCE ALBERT  PTSUNNY   66  21  18 S8        30.28S
REGINA         MOSUNNY   64  23  20 VRB13     30.29S
YORKTON        SUNNY     64  25  22 E16       30.31S
N. BATTLEFORD  CLOUDY    66  30  26 SW9G17    30.27R
LA RONGE       MOSUNNY   70  23  17 S14G20    30.23F   C1F1C2F2C3F3C4F4C5F5C6F6C7F7C8F8C9F9CaFaCbFbCcFcCdFdCe!



USA.gov is the U.S. government's official web portal to all federal, state and local government web resources and services.